Wind_Speed
12 11 11 12 12 14 15 16 17 19 20 19 19 19 19 17 19 19 20 20 21 21 21 22 22 22 22 23 22 21 21 20 20 20 20 19 18 17 17 17 17 16 16 16
11 12 12 12 13 15 15 16 17 19 20 19 19 19 18 18 19 19 19 20 21 22 21 21 21 21 21 20 20 19 19 18 18 18 17 17 16 16 16 16 15 15 15 15
10 10 12 13 13 14 16 16 17 19 19 19 18 18 18 17 18 19 19 20 20 21 20 19 19 19 19 19 18 18 18 17 17 16 15 15 14 14 14 15 14 14 14 14
10 9 11 12 12 13 15 17 17 19 19 17 18 18 18 18 18 18 17 18 19 19 18 17 17 17 18 18 17 17 16 15 15 14 14 14 13 13 13 14 12 11 12 13
9 10 11 11 11 12 14 16 16 17 15 15 17 17 17 18 17 16 17 17 17 17 16 17 17 16 16 16 16 16 14 13 13 12 12 12 11 11 11 11 11 10 11 12
9 10 11 11 12 13 14 15 14 15 14 15 16 17 17 17 17 16 17 16 16 16 15 15 15 15 14 14 14 13 12 12 11 11 11 10 10 10 9 9 10 9 10 9
9 11 12 10 12 13 13 14 13 13 13 14 15 16 16 16 15 15 15 15 14 14 14 14 13 13 12 11 11 11 11 10 10 9 9 9 8 8 8 8 8 8 9 9
11 12 11 11 13 13 13 13 13 13 14 14 14 15 15 14 14 13 13 13 12 12 11 11 11 10 8 9 9 9 9 8 7 7 8 8 7 7 8 8 8 7 9 9
10 11 11 11 11 11 11 11 12 12 12 13 13 14 13 12 13 12 12 10 9 9 9 9 9 7 6 7 8 7 6 6 6 6 7 8 7 7 7 8 8 8 9 9
10 10 10 10 10 10 9 10 10 10 11 12 12 11 11 11 11 10 9 8 8 7 7 7 7 7 7 7 6 6 5 5 5 6 7 7 7 7 7 8 7 8 8 9
9 9 9 9 9 9 9 9 9 10 10 10 10 10 9 9 9 8 8 7 6 6 6 6 6 7 6 5 5 5 5 5 5 5 6 7 7 7 7 7 8 8 8 9
8 8 9 8 8 8 8 8 8 8 9 9 9 8 8 7 7 7 7 6 5 5 6 6 6 6 5 5 4 4 4 4 4 5 6 6 7 8 8 8 8 8 8 9
7 7 7 7 7 7 7 7 7 7 7 7 6 6 6 6 6 6 5 4 4 4 5 4 4 4 4 4 4 4 4 4 4 5 6 7 7 7 8 9 9 8 9 9
7 6 6 6 6 6 6 6 6 6 5 5 5 4 5 6 5 4 4 4 4 4 4 4 3 3 3 3 3 3 3 3 3 4 5 6 7 7 7 7 7 8 8 9
5 5 5 5 5 5 5 5 5 4 4 4 4 4 5 5 5 4 4 5 4 4 5 4 3 3 3 3 3 3 3 3 3 4 5 6 6 7 7 6 6 6 6 7
3 3 3 4 4 4 4 4 4 3 3 3 4 4 5 5 5 5 5 5 5 5 5 4 4 4 3 3 3 3 3 3 3 3 4 5 5 5 6 5 5 6 6 6
2 2 3 3 3 3 4 4 3 3 3 3 3 4 4 4 5 5 5 5 6 6 5 5 4 4 4 4 4 3 3 3 3 3 4 4 5 4 4 4 4 5 5 5
1 1 3 3 3 3 4 4 4 3 4 3 3 4 4 4 4 4 4 5 6 6 6 5 5 5 4 4 4 4 3 3 3 4 4 4 4 4 4 4 4 4 4 4
1 2 2 3 3 3 3 3 3 3 3 3 3 3 3 3 3 4 4 4 5 5 5 5 4 4 4 4 4 4 4 4 4 5 5 5 4 4 5 5 5 5 5 5
2 2 2 3 3 3 2 3 3 3 3 3 3 3 3 3 3 3 4 5 5 5 5 4 4 4 4 4 4 4 4 5 5 5 5 5 5 5 6 6 7 7 7 7
3 3 3 3 3 3 2 3 3 3 3 3 3 3 3 3 3 4 4 5 5 5 5 5 5 5 5 5 4 5 5 5 5 5 6 6 6 7 7 8 8 9 9 9
4 4 4 4 3 3 2 2 3 3 3 3 3 3 3 4 4 4 5 6 6 5 5 5 5 5 5 5 5 6 6 6 6 7 7 8 8 9 9 10 11 11 12 12
4 4 4 4 3 3 2 2 3 3 3 3 3 3 4 4 4 5 5 6 6 6 6 5 6 6 6 7 7 8 8 8 8 9 9 9 10 11 11 12 13 13 14 14
5 5 4 3 3 3 3 3 3 3 3 4 4 4 4 5 5 5 6 7 7 7 7 7 7 7 8 8 9 9 10 10 10 11 11 12 12 13 14 14 15 15 16 16
6 5 4 4 3 3 3 3 4 4 5 5 5 5 6 6 6 6 7 8 8 8 8 8 9 9 10 10 11 11 12 12 13 13 14 14 15 15 16 17 17 18 19 20
7 6 6 5 5 5 5 5 5 5 6 6 6 6 6 7 7 8 8 9 9 9 9 10 10 11 11 12 13 13 14 14 15 15 16 17 17 18 18 19 20 21 22 22
8 8 7 7 6 6 6 6 6 6 7 7 7 8 8 9 9 10 10 11 11 11 11 12 12 13 13 14 15 15 16 16 17 18 18 19 20 20 21 22 22 23 24 24
Wind_Direction
248 255 256 253 254 257 262 263 267 270 273 275 280 280 283 281 282 284 286 290 292 293 295 296 297 299 301 303 304 305 306 307 308 307 306 306 305 305 307 308 309 308 307 307
245 251 254 256 257 258 261 262 264 269 273 278 280 280 284 285 286 286 288 290 292 294 296 296 297 299 303 304 307 308 308 308 310 311 310 307 307 307 308 309 311 313 314 314
255 251 254 254 258 263 265 264 266 270 274 277 279 280 283 285 286 288 289 292 294 295 297 297 298 301 304 307 307 309 310 309 310 312 311 309 309 311 311 313 312 313 317 320
252 257 258 264 265 265 269 274 273 274 277 281 281 281 287 287 288 289 292 296 298 297 297 297 300 304 305 304 305 307 310 311 309 311 311 311 313 316 317 319 319 320 322 324
257 259 263 268 270 274 274 274 275 277 281 283 285 288 289 290 293 296 298 302 303 302 302 302 303 304 304 303 303 305 308 311 312 313 315 318 318 322 324 326 327 328 330 332
252 258 261 267 271 275 278 279 279 282 286 285 288 292 293 293 295 298 302 304 305 305 306 305 305 306 305 307 305 308 311 314 317 318 322 328 332 334 335 337 337 337 341 344
261 267 271 273 280 284 282 284 285 284 288 290 291 293 295 298 301 302 302 304 305 306 307 308 309 309 311 315 316 316 319 322 324 324 327 329 335 338 339 343 348 354 357 355
264 268 278 288 286 282 285 287 287 288 291 293 294 297 299 302 304 305 305 304 304 306 310 314 316 317 319 328 330 328 327 330 338 343 347 346 342 350 353 355 358 360 359 359
270 271 279 285 288 286 289 290 287 289 294 296 298 297 298 301 304 307 308 308 309 310 316 322 325 327 332 334 339 341 340 349 354 351 356 5 8 7 13 10 8 7 5 4
275 285 288 288 286 288 292 294 296 294 296 301 306 307 306 304 305 309 310 310 313 320 325 326 328 332 337 339 344 348 349 353 356 356 360 11 20 25 24 20 19 18 16 17
282 288 292 293 293 295 295 297 301 301 297 305 313 313 310 309 308 309 310 310 315 324 329 330 336 342 345 349 351 359 3 2 9 15 16 19 24 27 24 23 25 26 26 26
280 287 293 295 298 303 303 303 307 308 305 305 313 317 317 318 320 317 314 314 321 328 330 334 339 346 357 0 360 6 14 17 23 24 26 26 27 30 33 36 39 41 38 38
286 293 296 297 304 310 306 304 314 317 316 313 319 321 326 331 334 335 332 327 329 331 333 339 350 356 3 3 5 12 19 25 32 36 35 32 33 35 39 44 47 49 47 48
291 295 299 304 312 313 309 306 319 325 326 328 333 338 343 349 353 357 359 355 347 349 349 349 355 4 13 10 8 12 16 25 35 36 36 36 36 39 41 44 50 53 54 55
299 302 305 311 316 319 316 312 322 332 335 346 356 355 353 359 8 17 16 14 13 10 8 10 4 2 10 15 15 17 20 20 25 31 38 39 39 39 39 42 51 53 51 50
318 322 327 330 332 336 338 336 341 352 358 5 13 12 11 14 21 25 23 24 23 17 17 23 28 27 17 4 1 12 15 18 24 30 32 32 33 35 40 43 46 47 48 53
347 352 350 345 346 355 1 3 3 5 10 11 13 15 16 19 26 29 30 28 24 21 21 21 24 24 16 14 11 9 16 23 21 19 18 20 20 23 29 33 37 37 38 39
321 346 2 2 1 3 11 14 14 13 13 12 13 10 8 12 19 25 27 24 21 17 13 16 17 11 18 23 16 15 17 12 3 357 358 2 5 7 9 9 6 5 6 9
320 343 360 3 360 357 2 11 15 16 16 17 14 8 6 10 15 20 20 16 13 9 11 12 9 6 14 10 4 1 359 358 354 347 343 348 349 347 342 339 337 334 331 330
305 321 339 346 347 351 357 2 7 12 18 20 18 14 14 14 14 13 10 6 3 6 6 1 5 3 356 352 348 348 350 344 339 339 340 339 336 332 329 326 325 324 320 316
287 302 318 326 331 337 342 344 346 351 3 10 11 11 12 11 5 0 357 357 359 357 359 357 354 352 350 346 345 340 337 332 330 329 329 327 325 324 324 322 318 314 312 310
273 295 311 313 315 318 319 323 326 338 355 354 351 350 353 356 356 356 353 351 353 351 352 355 351 347 343 342 338 332 329 325 322 320 317 315 314 312 311 310 310 308 306 304
262 281 297 305 307 309 310 310 313 321 338 342 343 343 344 347 348 349 347 347 347 348 349 348 343 338 335 333 329 327 327 324 319 315 313 311 310 308 306 305 305 304 303 303
256 269 282 293 300 302 298 298 305 314 325 330 330 331 333 334 337 339 339 338 336 333 331 329 326 324 323 323 322 323 322 319 314 311 308 307 306 304 303 302 302 302 301 301
251 258 266 276 289 298 300 299 300 304 309 312 313 318 324 329 331 332 332 333 330 326 323 320 318 317 317 317 316 316 316 314 312 310 308 307 305 304 302 300 299 299 299 299
250 253 258 265 274 283 289 294 299 302 303 305 305 308 312 317 320 323 325 327 328 324 321 319 317 315 315 314 312 311 311 310 310 309 308 307 306 304 302 300 299 298 298 297
252 254 257 260 266 274 281 286 292 296 298 299 300 303 305 308 311 314 315 317 318 316 314 314 313 312 311 311 311 311 310 309 308 307 306 305 304 303 302 301 300 299 299 298
Height
5811 5812 5812 5813 5813 5814 5814 5813 5813 5812 5809 5808 5806 5805 5804 5802 5802 5801 5800 5798 5796 5794 5792 5790 5788 5785 5783 5780 5777 5774 5772 5769 5767 5764 5761 5759 5756 5754 5752 5750 5748 5746 5744 5742
5808 5809 5809 5810 5810 5810 5810 5810 5810 5808 5806 5804 5803 5802 5800 5798 5797 5797 5795 5794 5792 5789 5787 5785 5782 5780 5778 5775 5772 5770 5768 5765 5763 5760 5757 5755 5753 5751 5749 5747 5745 5743 5741 5739
5806 5806 5807 5807 5808 5807 5807 5806 5806 5804 5803 5800 5799 5797 5796 5794 5793 5792 5790 5788 5787 5784 5782 5780 5777 5775 5773 5770 5768 5766 5764 5761 5759 5757 5754 5752 5750 5748 5746 5745 5743 5741 5739 5737
5803 5804 5804 5806 5805 5804 5804 5802 5801 5800 5798 5796 5795 5793 5792 5791 5788 5786 5785 5784 5782 5779 5777 5775 5773 5771 5769 5767 5765 5762 5760 5758 5756 5754 5752 5750 5748 5746 5744 5742 5740 5738 5736 5734
5800 5800 5801 5802 5801 5801 5800 5799 5797 5795 5794 5793 5791 5789 5788 5786 5784 5782 5781 5779 5777 5774 5772 5771 5769 5767 5765 5763 5761 5759 5757 5755 5753 5752 5750 5748 5746 5744 5742 5740 5739 5737 5735 5733
5797 5797 5798 5799 5798 5797 5797 5795 5793 5792 5791 5790 5788 5786 5785 5783 5781 5779 5777 5775 5773 5771 5769 5767 5765 5763 5761 5759 5758 5756 5755 5753 5751 5750 5748 5746 5744 5743 5741 5739 5737 5736 5734 5732
5795 5794 5793 5794 5794 5794 5794 5792 5789 5788 5787 5786 5785 5783 5781 5779 5777 5775 5773 5771 5769 5768 5766 5764 5762 5760 5759 5757 5756 5754 5753 5751 5750 5748 5747 5745 5744 5742 5740 5739 5737 5736 5734 5732
5793 5792 5793 5791 5791 5790 5790 5788 5787 5786 5784 5783 5781 5779 5777 5775 5774 5772 5770 5768 5766 5764 5763 5762 5760 5758 5757 5755 5754 5753 5751 5750 5749 5747 5746 5744 5743 5742 5740 5739 5737 5736 5734 5733
5791 5792 5790 5789 5788 5787 5786 5785 5784 5783 5781 5780 5778 5776 5774 5772 5771 5769 5768 5766 5764 5762 5761 5760 5758 5757 5756 5755 5753 5752 5751 5749 5748 5747 5746 5744 5743 5742 5740 5739 5738 5736 5735 5733
5788 5787 5787 5786 5785 5784 5783 5782 5781 5779 5778 5776 5775 5773 5771 5769 5768 5767 5765 5764 5762 5761 5760 5759 5757 5756 5755 5754 5753 5752 5751 5750 5748 5747 5746 5745 5743 5742 5741 5740 5739 5737 5736 5734
5786 5786 5785 5784 5783 5782 5781 5780 5778 5776 5775 5773 5772 5770 5769 5767 5766 5765 5764 5763 5761 5760 5759 5758 5757 5756 5755 5754 5753 5752 5751 5750 5749 5748 5747 5746 5745 5743 5742 5741 5740 5738 5737 5736
5785 5784 5783 5782 5781 5779 5778 5777 5775 5774 5773 5771 5770 5768 5767 5766 5764 5763 5762 5761 5760 5759 5759 5758 5757 5756 5755 5754 5753 5752 5751 5750 5749 5749 5748 5747 5746 5744 5743 5742 5741 5740 5739 5738
5783 5782 5781 5780 5779 5778 5776 5775 5773 5772 5770 5770 5768 5767 5766 5764 5763 5762 5761 5760 5760 5759 5758 5757 5756 5756 5755 5754 5754 5753 5752 5751 5750 5750 5749 5748 5747 5746 5745 5744 5742 5742 5741 5740
5781 5781 5779 5779 5777 5776 5775 5773 5772 5771 5770 5769 5767 5766 5765 5764 5763 5762 5761 5760 5759 5758 5758 5757 5756 5756 5755 5755 5754 5753 5753 5752 5751 5751 5750 5749 5748 5747 5746 5745 5745 5744 5743 5742
5780 5779 5778 5777 5776 5775 5774 5772 5771 5770 5769 5768 5767 5766 5765 5764 5763 5762 5761 5760 5759 5758 5758 5757 5757 5756 5755 5755 5754 5754 5753 5753 5752 5752 5751 5750 5750 5749 5748 5747 5746 5745 5745 5744
5779 5778 5777 5776 5775 5774 5773 5772 5771 5770 5769 5768 5767 5766 5765 5764 5763 5763 5762 5761 5760 5759 5759 5758 5757 5756 5756 5755 5755 5754 5754 5754 5753 5753 5752 5751 5751 5750 5749 5748 5748 5747 5746 5746
5779 5778 5777 5776 5775 5774 5773 5772 5771 5770 5770 5769 5768 5767 5766 5765 5764 5763 5763 5762 5761 5760 5759 5759 5758 5757 5757 5756 5755 5755 5754 5754 5754 5753 5753 5752 5751 5751 5750 5749 5749 5748 5748 5747
5779 5778 5777 5776 5775 5775 5774 5773 5772 5771 5770 5769 5769 5768 5767 5766 5765 5764 5764 5763 5762 5761 5760 5759 5759 5758 5757 5757 5756 5756 5755 5755 5754 5754 5753 5753 5752 5751 5751 5750 5750 5749 5748 5748
5779 5778 5778 5777 5776 5775 5774 5773 5773 5772 5771 5770 5769 5768 5768 5767 5766 5765 5765 5764 5763 5762 5761 5760 5759 5759 5758 5758 5757 5756 5756 5755 5755 5754 5753 5753 5752 5751 5751 5750 5750 5749 5748 5748
5779 5778 5778 5777 5776 5775 5774 5774 5773 5772 5772 5771 5770 5769 5769 5768 5767 5766 5766 5765 5764 5763 5762 5761 5760 5759 5759 5758 5757 5757 5756 5755 5755 5754 5753 5753 5752 5751 5750 5750 5749 5748 5747 5746
5779 5778 5778 5777 5776 5775 5775 5774 5773 5773 5772 5772 5771 5770 5769 5769 5768 5767 5766 5766 5765 5764 5762 5761 5761 5760 5759 5758 5757 5757 5756 5755 5754 5753 5753 5752 5751 5750 5749 5748 5747 5746 5745 5744
5778 5778 5777 5777 5776 5775 5775 5774 5774 5773 5773 5772 5771 5771 5770 5769 5769 5768 5767 5766 5765 5764 5763 5762 5761 5760 5759 5758 5757 5756 5755 5754 5753 5753 5752 5751 5750 5749 5748 5747 5746 5744 5743 5742
5777 5777 5777 5776 5775 5775 5774 5774 5774 5773 5773 5772 5772 5771 5770 5770 5769 5768 5767 5766 5765 5764 5763 5762 5761 5760 5759 5758 5757 5756 5755 5753 5752 5751 5750 5749 5748 5747 5745 5744 5743 5741 5740 5739
5776 5776 5776 5776 5775 5775 5774 5774 5774 5773 5773 5772 5772 5771 5770 5770 5769 5768 5767 5766 5765 5764 5763 5762 5761 5760 5759 5757 5756 5755 5754 5752 5751 5749 5748 5746 5745 5744 5742 5741 5739 5738 5736 5735
5775 5775 5775 5775 5775 5774 5774 5774 5773 5773 5772 5772 5771 5771 5770 5769 5769 5768 5767 5766 5765 5763 5762 5761 5760 5759 5757 5756 5755 5753 5752 5750 5748 5747 5745 5743 5741 5740 5738 5737 5735 5734 5732 5730
5774 5774 5774 5774 5774 5774 5773 5773 5772 5772 5772 5771 5771 5770 5769 5769 5768 5767 5766 5765 5763 5762 5761 5760 5758 5757 5755 5754 5752 5751 5749 5747 5745 5743 5741 5739 5737 5735 5734 5732 5730 5728 5726 5724
5772 5772 5773 5773 5773 5773 5772 5772 5772 5771 5771 5770 5770 5769 5768 5768 5767 5766 5764 5763 5762 5760 5759 5758 5756 5755 5753 5751 5749 5747 5745 5743 5741 5739 5737 5735 5733 5731 5728 5726 5724 5722 5720 5717